Flag for Canada Weather past 2 weeks in Annapolis County, Nova Scotia, Canada

Now
16 °F

Cold.


Feels Like: 8 °F
Forecast: 15 / 30 °F
Wind: 5 mph from North

Location: Kejimkujik 1

Current Time: Jan 26, 2015 at 9:16:17 PM

Latest Report: Jan 26, 2015 at 8:00 PM


Visibility: N/A

Pressure: 30.24 "Hg

Humidity: 67%

Dew point: 7 °F

Location of Annapolis CountyLocation

Historic Weather in Annapolis County — Graph

°F

Annapolis County temperature yesterday

Maximum temperature yesterday: 43 °F (at 12:00 AM)
Minimum temperature yesterday: 20 °F (at 11:00 PM)
Average temperature yesterday: 31 °F

Past Weeks' High & Low Weather Summary

 TemperatureHumidityPressure
High48 °F (Jan 19, 9:00 AM)100% (Jan 12, 6:00 AM)30.60 "Hg (Jan 12, 6:00 AM)
Low-4 °F (Jan 14, 7:00 AM)47% (Jan 26, 4:00 PM)28.63 "Hg (Jan 24, 11:00 PM)
Average24 °F87%29.95 "Hg
* Reported Jan 11 8:00 PM — Jan 26 8:00 PM, Annapolis County, Weather by CustomWeather, © 2014

Note: Actual official high and low records may vary slightly from our data, if they occured in-between our weather recording intervals... More about our weather records

Advertising

Annapolis County weather history for previous 24 hours

 ConditionsComfort  
Time TempWeatherWind HumidityBarometerVisibility
8:00 PM
Jan 26
16 °FCold.5 mph67%30.24 "HgN/A
7:00 PM16 °FCold.3 mph66%30.24 "HgN/A
6:00 PM17 °FCold.2 mph65%30.20 "HgN/A
5:00 PM19 °FCold.1 mph55%30.19 "HgN/A
4:00 PM22 °FCold.3 mph47%30.16 "HgN/A
3:00 PM22 °FCold.3 mph54%30.14 "HgN/A
2:00 PM20 °FCold.3 mph54%30.15 "HgN/A
1:00 PM18 °FCold.3 mph54%30.17 "HgN/A
12:00 PM18 °FCold.5 mph59%30.17 "HgN/A
11:00 AM15 °FCold.3 mph66%30.17 "HgN/A
10:00 AM13 °FCold.3 mph74%30.15 "HgN/A
9:00 AM11 °FCold.5 mph74%30.11 "HgN/A
8:00 AM11 °FCold.5 mph79%30.08 "HgN/A
7:00 AM11 °FCold.6 mph77%30.04 "HgN/A
6:00 AM12 °FCold.6 mph78%30.00 "HgN/A
5:00 AM15 °FCold.6 mph70%29.98 "HgN/A
4:00 AM14 °FCold.8 mph74%29.94 "HgN/A
3:00 AM15 °FCold.7 mph77%29.89 "HgN/A
2:00 AM16 °FCold.7 mph74%29.86 "HgN/A
1:00 AM17 °FCold.10 mph72%29.82 "HgN/A
12:00 AM17 °FCold.9 mph72%29.80 "HgN/A
11:00 PM
Jan 25
20 °FCold.7 mph73%29.74 "HgN/A
10:00 PM21 °FCold.9 mph79%29.69 "HgN/A
9:00 PM23 °FCold.10 mph72%29.63 "HgN/A
Weather by CustomWeather, © 2014

See weather overviewHow to use our weather pages